RH
76 77 72 68 67 64 61 56 57 52 50 43 43 46 59 57 56 64 68 67 71 72 75 71 68 67 63 59 52 54 58 63 64 78 82 86 85 88 71 52 38 27 15 11
86 76 75 82 72 65 65 64 62 55 66 57 46 61 70 72 60 65 66 69 70 78 62 55 58 58 61 60 62 63 76 76 79 95 90 94 87 82 59 36 23 16 11 10
89 68 66 87 60 64 64 64 57 70 58 58 55 84 95 86 76 74 74 72 76 74 63 62 59 63 61 70 82 79 83 86 96 94 100 90 79 60 37 20 16 11 10 8
74 69 64 80 83 74 56 72 80 66 54 49 64 100 100 81 82 77 90 86 89 78 71 63 59 64 75 89 87 86 94 98 98 100 96 85 67 36 20 16 12 10 9 7
70 79 68 96 100 91 88 98 97 53 61 52 85 100 94 88 90 93 91 93 87 72 60 59 70 81 92 93 94 88 100 100 100 97 88 68 44 23 17 12 11 10 7 6
71 65 75 100 100 100 90 92 80 84 59 84 100 100 100 84 83 84 88 80 71 69 73 77 84 92 98 93 89 100 100 96 100 94 66 43 23 16 13 11 11 8 6 6
70 57 66 100 100 100 97 73 75 77 87 100 100 100 96 83 87 85 77 73 74 76 76 90 96 96 90 91 99 100 99 96 85 76 51 25 17 14 11 11 9 7 6 6
51 56 70 100 99 89 68 78 90 88 97 100 99 96 93 94 90 81 77 74 84 90 90 92 91 87 88 98 100 93 94 74 63 54 31 22 14 10 10 9 7 6 5 5
96 97 94 100 100 88 89 82 97 100 99 100 98 93 93 86 87 78 79 81 77 78 91 82 79 86 100 100 100 88 69 44 36 27 21 16 10 10 10 7 6 5 5 5
100 100 100 100 98 81 77 88 92 90 91 92 89 86 95 92 87 80 72 71 79 90 82 81 94 100 100 98 87 65 52 33 22 20 15 11 10 9 7 6 5 4 5 5
98 100 92 92 84 70 81 92 86 76 73 79 94 97 85 79 68 71 76 86 89 83 83 92 100 100 94 86 65 49 34 24 17 15 12 10 10 7 6 5 5 5 6 6
76 76 66 72 78 88 96 92 84 91 98 99 86 77 70 61 69 84 90 88 82 85 95 98 94 85 79 63 44 30 23 17 16 13 10 10 9 6 6 5 6 6 6 6
64 65 68 74 72 84 90 98 94 87 78 73 70 65 72 87 93 90 79 87 96 97 90 80 60 51 45 35 30 19 17 16 13 10 11 10 6 6 5 6 6 6 6 7
66 64 74 82 95 96 88 86 81 70 71 70 73 84 94 94 87 83 93 96 95 78 73 41 30 26 26 24 19 18 16 13 11 11 10 6 6 5 5 6 7 6 7 6
80 78 82 90 93 88 77 66 68 70 70 74 84 98 86 79 86 94 93 91 80 79 58 52 35 28 21 18 18 16 13 10 10 10 7 6 5 5 6 6 7 7 7 7
98 97 93 86 70 64 68 71 78 74 77 78 78 80 91 96 97 98 88 79 70 66 46 54 40 28 19 17 15 13 10 10 10 8 6 6 4 6 6 6 7 7 6 6
77 74 70 69 70 71 74 74 72 74 84 89 90 98 92 98 95 70 74 64 53 43 39 32 30 19 17 14 12 10 10 10 8 6 6 5 5 6 6 6 6 6 6 6
62 64 69 71 73 73 75 80 93 98 99 100 100 95 86 73 73 63 56 50 44 35 22 18 17 15 13 11 9 8 9 9 6 5 5 4 6 6 6 6 6 6 6 6
71 72 74 80 83 88 93 97 96 93 88 86 84 80 75 58 47 46 44 51 43 25 18 16 14 12 10 9 8 8 8 6 5 5 5 6 6 6 6 6 6 5 5 6
86 95 97 99 100 100 100 98 95 95 78 75 71 54 56 52 41 31 30 36 31 15 14 13 9 8 8 8 7 8 6 5 5 4 5 6 6 6 6 6 6 5 6 7
96 100 94 87 89 85 90 90 76 64 53 55 70 64 51 41 27 17 15 14 13 11 9 7 7 7 7 7 7 6 5 5 5 5 6 6 5 6 6 6 5 5 6 8
79 89 95 95 85 70 65 64 51 45 47 43 29 21 16 14 12 10 9 7 7 7 6 6 6 7 7 7 5 4 5 5 5 6 5 4 4 5 5 5 5 5 6 8
71 60 50 46 41 39 36 38 37 22 16 14 12 10 9 8 7 6 6 7 7 6 6 6 7 7 5 4 4 4 4 5 6 5 4 4 4 5 5 5 5 6 7 8
40 35 31 26 17 17 17 14 12 11 10 9 7 6 5 5 6 6 5 5 5 5 6 6 6 4 4 4 4 4 5 5 5 4 4 4 4 5 5 5 5 6 6 7
21 18 16 12 10 10 10 10 10 9 8 7 6 6 5 5 4 5 5 5 5 5 5 4 4 4 4 4 4 5 5 4 4 4 4 4 4 4 4 5 5 6 6 6
13 12 11 10 10 10 10 10 9 7 6 6 7 6 6 5 4 4 5 5 4 4 4 4 4 4 4 4 4 4 4 4 4 4 4 4 4 5 5 5 6 6 5 4
10 10 9 8 8 8 7 5 5 6 6 5 5 4 4 4 5 4 4 3 3 3 3 4 4 4 4 4 3 3 3 4 4 5 4 4 4 5 6 6 5 5 4 3
Wind_Speed
14 17 18 20 22 24 26 27 29 29 32 35 40 45 51 53 53 53 55 60 61 60 58 58 59 62 66 70 75 81 86 92 99 105 111 118 123 124 127 125 123 123 117 111
19 19 21 23 27 26 29 30 29 32 38 42 44 49 54 57 58 58 61 63 66 65 63 61 63 68 74 79 84 89 93 100 107 111 117 124 125 127 126 126 123 119 110 100
22 22 22 29 30 29 31 30 35 39 42 46 51 56 59 61 63 65 67 70 71 71 67 67 70 76 81 86 91 95 100 107 111 117 123 127 128 127 127 124 120 111 104 96
26 28 25 34 36 33 29 35 40 45 47 52 54 59 63 66 66 68 71 75 74 75 74 74 77 82 87 92 97 102 107 112 117 122 127 129 125 127 124 121 113 107 100 93
30 33 29 34 40 39 35 40 49 52 55 56 58 63 68 70 71 71 74 78 78 77 76 79 83 88 93 98 103 109 112 117 123 126 126 125 126 127 124 115 108 101 95 88
33 28 27 37 42 41 42 44 55 57 60 61 64 68 73 76 74 74 78 81 79 77 80 84 89 93 98 103 108 114 119 124 126 125 122 124 126 123 117 110 102 97 89 83
36 33 33 40 41 46 50 53 59 63 63 65 68 72 76 78 78 79 82 82 80 81 86 90 94 98 103 108 115 119 124 125 124 121 121 124 123 118 112 103 98 91 84 78
40 42 40 44 49 54 57 60 62 64 67 70 72 77 77 80 82 83 84 83 83 87 92 95 99 104 109 115 118 123 124 120 119 121 121 121 118 113 104 99 93 85 77 72
50 50 49 51 56 58 62 65 68 71 74 75 78 79 80 83 84 85 84 84 88 93 97 102 106 110 115 119 121 121 121 120 120 119 119 116 113 105 99 94 86 77 71 67
50 54 57 59 60 63 67 70 73 76 78 80 82 82 84 85 85 87 88 91 95 99 104 108 112 116 119 119 118 118 119 120 117 117 115 112 107 100 94 87 78 72 68 64
55 60 61 65 68 71 73 76 80 82 82 83 83 85 88 87 87 88 92 96 100 105 110 115 117 120 119 117 117 119 119 118 115 113 111 107 102 95 88 79 73 68 65 61
59 64 65 69 74 77 80 83 84 84 84 87 88 88 88 88 91 93 97 102 108 113 116 119 120 118 115 115 117 118 116 115 113 110 106 101 96 90 80 74 71 66 62 58
67 71 72 76 80 83 84 85 86 87 90 89 88 89 90 93 96 100 106 111 115 117 121 120 114 114 114 113 115 115 114 111 109 105 100 95 89 82 75 70 67 63 59 56
76 78 80 83 83 84 86 88 90 90 90 89 89 92 94 99 104 108 112 116 119 122 117 112 114 115 114 113 112 112 111 107 103 99 94 89 83 75 72 67 63 60 58 54
81 82 83 83 84 86 88 89 89 88 90 92 94 98 102 107 111 115 118 121 123 119 115 115 117 120 114 112 111 108 105 102 96 93 87 82 76 71 69 63 60 56 53 51
81 83 84 85 86 86 87 88 92 94 96 99 102 107 110 114 117 119 122 122 116 116 116 119 122 118 112 109 107 103 100 95 91 86 80 76 71 69 65 61 57 54 51 48
85 85 86 85 87 89 92 95 97 100 104 107 112 114 119 120 122 124 120 114 114 116 118 119 117 109 106 105 102 99 94 90 85 80 75 71 69 66 62 58 55 52 49 48
84 86 88 90 93 96 99 102 105 107 111 115 118 120 124 125 123 120 114 114 115 118 117 107 106 104 101 99 97 93 88 83 80 75 71 67 66 63 59 56 53 51 49 47
92 94 97 99 102 103 105 108 112 116 117 120 121 123 120 118 117 118 116 115 118 113 108 105 101 98 97 95 92 88 82 77 74 70 66 65 62 59 57 54 53 50 47 45
98 101 104 106 109 111 112 113 117 121 122 118 114 115 118 120 121 121 117 115 115 102 98 98 94 93 91 89 86 80 76 72 70 67 64 62 59 56 55 53 52 50 47 45
105 107 110 114 114 115 117 119 118 115 114 115 117 122 124 124 119 109 101 96 96 95 94 93 90 87 84 82 78 74 72 68 66 64 62 60 57 54 53 52 51 49 47 44
111 113 117 118 119 113 111 110 110 113 118 121 119 112 103 99 96 96 94 91 89 89 89 86 84 81 78 75 72 70 68 65 63 62 59 56 54 53 52 51 51 49 47 43
112 111 108 108 107 106 105 105 109 112 104 98 94 94 93 90 90 90 86 88 87 86 83 79 77 75 72 69 68 67 65 63 61 59 57 53 52 52 52 51 50 48 46 43
109 109 106 109 108 105 105 101 97 95 93 92 90 90 90 87 87 88 85 82 80 76 75 72 72 70 68 66 65 64 63 61 58 57 56 54 51 50 50 49 48 47 44 41
110 106 104 100 94 93 95 95 94 93 93 91 92 92 90 85 80 77 77 75 73 70 69 68 67 67 65 64 62 61 60 59 57 56 55 53 51 50 48 46 46 45 43 40
103 102 101 99 97 96 94 93 92 91 90 87 86 84 83 81 78 73 71 70 67 66 66 65 65 64 63 62 60 58 57 56 55 54 52 50 48 47 47 46 44 42 41 39
100 98 95 93 89 88 89 87 83 81 79 76 73 73 72 72 71 69 67 66 64 64 63 63 63 62 61 60 58 56 55 53 51 51 50 48 47 47 46 43 41 41 40 39
Wind_Direction
266 274 279 281 283 285 286 291 300 306 311 314 316 320 320 320 319 320 317 320 321 320 315 311 308 308 310 311 311 314 316 317 319 319 320 321 321 320 320 320 320 320 321 320
260 270 277 280 279 283 285 296 301 304 307 311 315 317 317 317 320 321 321 321 322 320 316 311 310 312 313 313 316 317 317 318 319 319 320 321 320 320 320 320 320 322 321 320
266 265 271 282 277 279 288 294 300 302 307 311 310 314 317 318 319 319 321 320 321 319 318 315 314 314 316 318 318 318 318 318 318 320 319 321 321 320 320 320 322 323 322 321
268 269 273 281 287 284 290 297 299 301 307 309 308 311 313 316 315 317 320 320 318 317 317 315 315 316 317 317 317 318 318 318 319 319 320 320 320 320 321 323 323 323 322 321
268 273 278 280 284 285 297 303 298 304 306 310 305 308 311 315 314 314 316 318 316 315 315 316 317 317 317 317 317 318 318 318 319 320 319 320 319 320 322 324 324 323 321 319
269 269 271 278 284 289 294 299 300 303 307 306 305 307 310 312 313 312 314 314 314 315 316 317 317 318 316 317 317 318 318 319 319 318 320 320 319 321 323 324 324 322 320 318
265 269 271 276 284 291 294 295 299 303 305 304 305 308 309 311 312 312 313 312 314 315 316 316 316 315 316 317 319 318 318 319 318 319 319 320 321 322 323 324 323 321 319 318
268 271 273 280 286 291 295 299 302 302 302 303 305 307 308 309 310 311 311 312 315 314 314 315 315 316 318 319 318 318 317 319 318 318 318 320 321 322 324 324 322 320 319 318
278 280 283 284 288 295 297 300 301 302 303 304 304 305 306 309 309 309 310 312 311 313 313 315 316 317 318 319 317 317 318 319 317 317 319 320 321 324 324 323 320 320 319 319
282 284 283 287 291 292 297 300 301 301 302 302 303 304 306 306 307 309 311 312 313 313 314 316 317 316 318 316 315 318 318 318 318 318 320 320 323 324 323 321 320 320 319 319
280 283 285 288 290 292 296 298 300 300 301 303 303 303 304 305 306 309 311 311 312 313 315 316 316 315 315 316 317 317 318 318 319 319 320 321 322 323 322 321 320 320 319 319
282 284 285 289 292 294 295 297 300 300 299 299 300 301 303 306 309 309 310 310 312 314 317 315 313 314 315 316 317 317 318 318 319 319 319 321 321 321 320 320 320 320 319 319
283 286 289 289 290 291 293 294 294 295 297 299 300 304 307 307 307 308 310 311 313 314 313 313 315 316 316 316 317 317 318 318 318 318 320 320 319 319 320 321 320 320 319 318
286 287 288 289 290 290 291 293 295 298 300 303 304 304 305 306 307 309 309 311 312 313 315 316 317 316 315 316 316 316 316 317 317 318 319 319 318 319 320 321 321 320 318 318
285 286 287 287 289 291 293 295 298 300 302 303 304 304 305 305 306 307 310 312 312 313 313 316 316 316 316 315 314 314 315 316 316 317 318 318 319 320 321 321 321 319 317 317
284 285 287 289 291 294 296 298 299 301 302 303 302 303 305 306 307 309 309 311 311 312 314 314 313 313 313 312 313 314 314 315 316 317 317 318 319 320 321 322 321 318 316 316
285 287 290 292 293 295 297 298 299 300 301 302 303 304 305 308 307 308 310 309 311 313 313 312 310 310 310 311 312 312 314 315 315 316 317 318 319 320 321 321 319 317 317 316
289 291 291 292 294 295 296 297 299 300 301 302 303 304 305 307 308 307 308 310 311 312 311 308 308 308 310 310 311 312 314 314 314 316 316 317 318 319 320 320 318 316 316 316
291 292 293 294 294 296 296 297 299 300 301 302 303 303 303 303 305 307 307 307 307 307 306 306 307 308 309 310 310 312 312 313 314 315 316 317 317 318 319 318 317 316 316 316
291 291 292 293 294 295 296 297 298 299 300 301 301 302 304 305 305 305 304 303 303 305 304 304 306 307 308 308 309 311 311 313 314 315 316 315 315 317 317 317 317 316 316 316
289 290 291 293 294 294 295 296 297 299 300 300 298 299 299 299 300 301 302 303 303 303 303 304 306 307 308 308 309 310 311 313 314 315 315 315 315 315 316 316 316 316 316 315
289 290 290 291 292 293 294 295 297 297 297 297 296 295 297 298 299 300 300 300 301 302 303 305 306 307 307 308 308 310 311 313 314 315 315 314 315 315 315 315 315 315 315 314
289 290 291 293 293 293 294 294 294 294 295 296 296 297 298 298 298 298 301 303 303 303 305 306 305 305 307 308 309 311 312 313 315 314 314 315 316 315 314 313 313 313 313 314
289 291 292 293 294 294 296 297 297 298 298 299 297 297 297 300 302 301 302 303 302 304 304 305 305 306 307 309 311 312 313 314 314 313 314 315 316 315 313 311 310 311 311 311
291 292 294 296 299 300 300 299 299 299 298 298 300 300 300 301 301 301 302 303 304 304 305 305 305 306 309 310 312 312 313 313 313 313 313 314 315 315 313 310 309 310 310 310
293 294 295 297 298 298 298 297 295 296 298 300 300 300 301 302 303 304 304 304 305 305 305 306 307 308 310 311 312 312 312 312 312 312 313 313 315 314 313 312 311 310 310 311
292 294 295 295 296 294 292 294 298 299 299 299 300 301 302 303 303 304 305 305 305 306 306 308 308 309 310 311 311 311 312 312 312 312 312 313 313 313 312 312 311 310 310 311